[[{"header":{"parameterUnit":"m.s-1","parameterCategory":1,"la1":30.2992,"la2":30.254,"lo1":-89.0895,"lo2":-89.0443,"dy":0.0025,"dx":0.0025,"nx":19,"ny":19,"refTime":"2026-05-18T09:00:00:Z","depth":0,"parameterNumber":2,"parameterNumberName":"U-component_of_WINDS"},"data":[0,0,0,-6.2534,-6.2538,-6.2738,-6.2739,-6.2991,-6.2993,0,0,0,0,0,0,0,0,0,0,0,-6.2473,-6.2475,-6.2534,-6.2539,-6.2738,-6.2739,-6.299,-6.2993,0,0,0,0,0,0,0,0,0,0,0,-6.2472,-6.2474,-6.2476,-6.2539,-6.2738,-6.2739,-6.299,-6.284,0,0,0,0,0,0,0,0,0,0,-6.2646,-6.2589,-6.2474,-6.2477,-6.2541,-6.2738,-6.2739,-6.2833,-6.2849,-6.2899,0,-6.2943,0,-6.2972,-6.3009,-6.301,0,0,0,-6.2539,-6.2575,-6.2631,-6.2477,-6.2542,-6.2738,-6.2648,-6.2842,-6.2861,-6.292,-6.2946,-6.2956,-6.2976,-6.3011,-6.3012,-6.3297,-6.3298,0,0,-6.2528,-6.2508,-6.2618,-6.2643,-6.2613,-6.2642,-6.2655,-6.2853,-6.288,-6.2947,-6.2962,-6.298,-6.3013,-6.3015,-6.3296,-6.3297,0,0,0,-6.2496,-6.25,-6.2551,-6.2632,-6.2669,-6.2648,-6.2662,-6.2871,-6.2889,-6.2965,-6.2983,-6.3014,-6.3017,-6.3295,-6.3296,-6.334,0,0,0,-6.2489,-6.2481,-6.2546,-6.2535,-6.2665,-6.2773,-6.2675,-6.2876,-6.2899,-6.2982,-6.3014,-6.302,-6.3293,-6.3296,-6.3335,-6.3362,0,0,0,-6.2461,-6.2478,-6.2506,-6.2534,-6.2619,-6.277,-6.28,-6.2881,-6.291,-6.301,-6.302,-6.3292,-6.3295,-6.3332,-6.3356,-6.343,0,0,0,-6.2423,-6.2541,-6.2507,-6.2646,-6.2618,-6.2797,-6.2799,-6.2933,-6.3024,-6.3015,-6.3293,-6.3296,-6.333,-6.3352,-6.3426,-6.3486,-6.3511,0,0,-6.256,-6.2557,-6.2641,-6.2616,-6.2795,-6.2768,-6.2954,-6.3056,-6.3084,-6.3224,-6.3232,-6.3337,-6.3355,-6.3429,-6.3658,-6.3677,0,0,0,-6.2677,-6.2736,-6.2789,-6.2876,-6.2959,-6.3031,-6.3108,-6.3147,-6.3267,-6.3153,-6.3386,-6.3398,-6.3441,-6.3471,-6.3487,-6.3525,-6.331,-6.331,-6.3309,-6.2837,-6.287,-6.301,-6.3067,-6.3151,-6.3231,-6.3302,-6.3367,-6.3373,-6.3428,-6.3468,-6.3604,-6.3638,-6.365,-6.369,-6.3506,-6.3506,-6.3506,-6.3506,-6.3039,-6.3127,-6.3136,-6.3275,-6.3308,-6.3425,-6.3508,-6.3508,-6.3621,-6.3576,-6.3616,-6.356,-6.367,-6.3706,-6.351,-6.3509,-6.3509,-6.3509,-6.3508,-6.3144,-6.3192,-6.324,-6.337,-6.3468,-6.3522,-6.3631,-6.3657,-6.3683,-6.3723,-6.3768,-6.3767,-6.3768,-6.3744,-6.3744,-6.3745,-6.3745,-6.3745,-6.3746,-6.3234,-6.3286,-6.3375,-6.3476,-6.3536,-6.3619,-6.3704,-6.3764,-6.3837,-6.3847,-6.3848,-6.3847,-6.3677,-6.3631,-6.3753,-6.3752,-6.3751,-6.375,-6.375,-6.342,-6.3383,-6.352,-6.3581,-6.3702,-6.3797,-6.3832,-6.3953,-6.4007,-6.4059,-6.4053,-6.3924,-6.3921,-6.3908,-6.387,-6.4047,-6.4047,-6.4047,-6.4047,-6.3506,-6.351,-6.3657,-6.3753,-6.385,-6.3896,-6.405,-6.4118,-6.4182,-6.4217,-6.4197,-6.4151,-6.4137,-6.4142,-6.4124,-6.4089,-6.4318,-6.4318,-6.4318,-6.3622,-6.3636,-6.3761,-6.3825,-6.3923,-6.4006,-6.4152,-6.4261,-6.4326,-6.433,-6.4245,-6.4233,-6.4159,-6.4134,-6.413,-6.4102,-6.4039,0,0]},{"header":{"parameterUnit":"m.s-1","parameterCategory":1,"la1":30.2992,"la2":30.254,"lo1":-89.0895,"lo2":-89.0443,"dy":0.0025,"dx":0.0025,"nx":19,"ny":19,"refTime":"2026-05-18T09:00:00:Z","depth":0,"parameterNumber":3,"parameterNumberName":"V-component_of_WINDS"},"data":[0,0,0,2.8362,2.8362,2.8368,2.8368,2.8352,2.8352,0,0,0,0,0,0,0,0,0,0,0,2.835,2.8349,2.8362,2.8362,2.8368,2.8368,2.8352,2.8352,0,0,0,0,0,0,0,0,0,0,0,2.835,2.8349,2.8349,2.8362,2.8368,2.8368,2.8352,2.8355,0,0,0,0,0,0,0,0,0,0,2.8353,2.8332,2.8349,2.8349,2.8362,2.8368,2.8368,2.8356,2.8355,2.8341,0,2.8328,0,2.834,2.835,2.8349,0,0,0,2.8369,2.8332,2.8344,2.8349,2.8362,2.8368,2.8367,2.8356,2.8355,2.834,2.8328,2.8328,2.834,2.8349,2.8349,2.8253,2.8253,0,0,2.8369,2.8344,2.8345,2.8343,2.8345,2.8367,2.8367,2.8356,2.8339,2.8328,2.8328,2.8339,2.8349,2.8349,2.8254,2.8253,0,0,0,2.8363,2.8343,2.8356,2.8344,2.8347,2.8367,2.8367,2.834,2.8347,2.8328,2.8339,2.8349,2.8349,2.8255,2.8254,2.8194,0,0,0,2.8363,2.834,2.8355,2.834,2.8346,2.8344,2.8351,2.8347,2.8347,2.8339,2.8349,2.8348,2.8256,2.8254,2.8198,2.8169,0,0,0,2.8353,2.8339,2.8336,2.8338,2.8341,2.8345,2.8351,2.8348,2.8353,2.8349,2.8348,2.8257,2.8255,2.8201,2.8174,2.8139,0,0,0,2.8333,2.8279,2.8335,2.8279,2.834,2.8309,2.8351,2.8328,2.8317,2.8349,2.8256,2.8254,2.8202,2.8177,2.8142,2.8105,2.8087,0,0,2.825,2.8268,2.8237,2.8288,2.8241,2.831,2.8253,2.8264,2.8284,2.8262,2.826,2.8196,2.8175,2.8139,2.7995,2.798,0,0,0,2.8202,2.818,2.8173,2.8165,2.8176,2.8183,2.8207,2.8212,2.8195,2.8269,2.8174,2.8162,2.8142,2.8125,2.8113,2.8099,2.8245,2.8245,2.8245,2.8047,2.8082,2.8034,2.8069,2.8059,2.8088,2.8083,2.8094,2.8126,2.8103,2.8097,2.8006,2.7985,2.7976,2.7961,2.8079,2.8079,2.8079,2.8079,2.7931,2.7905,2.7955,2.7927,2.7962,2.7937,2.7962,2.7987,2.7968,2.8012,2.7996,2.8042,2.796,2.7948,2.8075,2.8075,2.8076,2.8076,2.8076,2.7834,2.7828,2.7838,2.7833,2.7824,2.786,2.7841,2.7872,2.7901,2.7885,2.7883,2.7884,2.789,2.7882,2.7882,2.7882,2.7882,2.7881,2.7881,2.773,2.7744,2.7726,2.7737,2.7738,2.7742,2.7772,2.7772,2.7781,2.7805,2.7805,2.784,2.7946,2.7973,2.7876,2.7877,2.7878,2.7878,2.7879,2.76,2.7636,2.7608,2.761,2.7626,2.7617,2.7658,2.7657,2.7662,2.7652,2.7692,2.7765,2.7784,2.7793,2.7816,2.7685,2.7685,2.7685,2.7685,2.7519,2.7533,2.7515,2.7516,2.7519,2.7555,2.7523,2.7546,2.7575,2.758,2.7603,2.7635,2.7644,2.7657,2.767,2.7691,2.7532,2.7532,2.7532,2.7442,2.7459,2.7426,2.746,2.7476,2.7488,2.7459,2.7456,2.7495,2.7526,2.7585,2.7591,2.7643,2.7658,2.7689,2.7708,2.7748,0,0]}]]